Home > Weather > San Diego > Past weeks

Flag for USA Past Weather in San Diego, California, USA — Yesterday and Last 2 Weeks

Now
64 °F

Overcast.


Feels Like: 64 °F
Forecast: 63 / 69 °F
Wind: 7 mph from Southwest

Location: San Diego - North Island

Current Time: May 31, 2016 at 1:05:52 PM

Latest Report: May 31, 2016 at 11:52 AM


Visibility: 10 mi

Pressure: 29.89 "Hg

Humidity: 81%

Dew Point: 58 °F

Location of San DiegoLocation

Past Weather in San Diego — Graph

°F

San Diego Temperature Yesterday

Maximum temperature yesterday: 68 °F (at 1:52 PM)
Minimum temperature yesterday: 61 °F (at 2:52 AM)
Average temperature yesterday: 64 °F

High & Low Weather Summary for the Past Weeks

 TemperatureHumidityPressure
High68 °F (May 18, 11:52 AM)90% (May 28, 9:52 AM)30.10 "Hg (May 28, 9:52 AM)
Low58 °F (May 21, 4:52 AM)52% (May 21, 10:52 AM)29.83 "Hg (May 28, 2:52 AM)
Average62 °F74%29.96 "Hg
* Reported May 16 11:52 AM — May 31 11:52 AM, San Diego, Weather by CustomWeather, © 2016

Note: Actual official high and low records may vary slightly from our data, if they occured in-between our weather recording intervals... More about our weather records

Advertising

San Diego Weather History for the Previous 24 Hours

Scroll right to see more
 ConditionsComfort  
Time TempWeatherWind HumidityBarometerVisibility
11:52 AM
Tue, May 31
64 °FOvercast.7 mph81%29.89 "Hg10 mi
10:52 AM63 °FOvercast.5 mph81%29.90 "Hg10 mi
9:52 AM63 °FOvercast.5 mph78%29.89 "Hg10 mi
8:52 AM62 °FOvercast.5 mph83%29.90 "Hg10 mi
7:52 AM61 °FOvercast.5 mph90%29.89 "Hg10 mi
6:52 AM61 °FOvercast.5 mph90%29.88 "Hg10 mi
5:52 AM61 °FOvercast.3 mph87%29.88 "Hg10 mi
4:52 AM61 °FOvercast.3 mph87%29.87 "Hg10 mi
3:52 AM62 °FOvercast.5 mph83%29.87 "Hg10 mi
2:52 AM62 °FOvercast.5 mph83%29.87 "Hg10 mi
1:52 AM62 °FOvercast.5 mph83%29.88 "Hg10 mi
12:52 AM62 °FOvercast.5 mph83%29.89 "Hg10 mi
11:52 PM
Mon, May 30
63 °FOvercast.6 mph81%29.90 "Hg10 mi
10:52 PM63 °FOvercast.6 mph81%29.92 "Hg10 mi
9:52 PM63 °FOvercast.8 mph81%29.92 "Hg10 mi
8:52 PM63 °FOvercast.9 mph81%29.91 "Hg10 mi
7:52 PM63 °FSunny.12 mph78%29.91 "Hg10 mi
6:52 PM65 °FScattered clouds.13 mph73%29.91 "Hg10 mi
5:52 PM67 °FSunny.12 mph68%29.91 "Hg10 mi
4:52 PM67 °FPassing clouds.12 mph71%29.91 "Hg10 mi
3:52 PM68 °FSunny.14 mph65%29.92 "Hg10 mi
2:52 PM67 °FOvercast.15 mph68%29.94 "Hg10 mi
1:52 PM68 °FOvercast.14 mph68%29.96 "Hg10 mi
Weather by CustomWeather, © 2016

See weather overviewHow to use our weather pages